Simultaneous Nadir Overpasses (SNOs) Predictions

Prediction of SNOs between GOES-15 and TERRA Satellite Orbit:

Table of predicted SNOs for the next 14.0 days since TLE Epoch: 11/21/2015
Index Date Time (GOES-15) GOES-15 Lat,Lon TERRA Lat,Lon Distance(km) Time Diff (sec)
1 11/22/2015 19:25:39 -0.19,-135.48 -0.47,-134.19 146.21 80
2 11/23/2015 07:49:42 0.17,-135.46 -0.64,-139.38 446.20 80
3 11/24/2015 19:13:27 -0.19,-135.48 -1.11,-131.24 483.29 80
4 11/25/2015 07:37:30 0.17,-135.46 -0.05,-136.41 109.40 80
5 11/27/2015 07:22:38 0.18,-135.45 0.60,-133.46 226.95 80
6 11/27/2015 19:46:32 -0.16,-135.48 0.51,-138.61 356.52 80
7 11/29/2015 19:34:19 -0.16,-135.47 -0.11,-135.65 20.42 80
8 12/01/2015 19:19:27 -0.16,-135.46 -0.73,-132.68 315.56 80
9 12/02/2015 07:43:30 0.14,-135.44 -0.36,-137.87 276.47 80
10 12/04/2015 07:28:37 0.14,-135.42 0.28,-134.91 59.03 80




NCC Satellite Simultaneous Nadir Overpasses (SNOs) Prediction Service
